SVA1126 OEJN-OEDF

Flight info

Callsign SVA1126
Flight time 1h 44m
Altitude 35000
Route EGREP B417 GAS J874 MUSRI DCT GETOT DCT SETBA
Aircraft A320/M-SDE3FGHIRWY/LB1

Departure

Time 2026-04-28 19:43
Airport King Abdulaziz International Airport (OEJN)

Arrival

Time 2026-04-28 21:27
Airport King Fahd International Airport (OEDF)
Time Latitude Longitude Altitude Speed Heading
2026-04-28 19:22 21.66555 39.17093 30 ft 0 kts 59°
2026-04-28 19:31 21.66555 39.17091 30 ft 1 kts 59°
2026-04-28 19:31 21.66546 39.17075 30 ft 3 kts 62°
2026-04-28 19:32 21.66537 39.17056 30 ft 3 kts 66°
2026-04-28 19:32 21.66529 39.17036 30 ft 3 kts 72°
2026-04-28 19:32 21.66524 39.17015 30 ft 3 kts 83°
2026-04-28 19:32 21.66524 39.16994 30 ft 3 kts 112°
2026-04-28 19:33 21.66531 39.16982 30 ft 1 kts 159°
2026-04-28 19:33 21.66536 39.16980 30 ft 0 kts 160°
2026-04-28 19:37 21.66533 39.16981 30 ft 2 kts 160°
2026-04-28 19:37 21.66492 39.16997 30 ft 10 kts 160°
2026-04-28 19:38 21.66419 39.17020 30 ft 9 kts 176°
2026-04-28 19:38 21.66346 39.17009 30 ft 11 kts 194°
2026-04-28 19:38 21.66292 39.16947 31 ft 13 kts 246°
2026-04-28 19:38 21.66255 39.16842 31 ft 17 kts 250°
2026-04-28 19:39 21.66228 39.16761 31 ft 12 kts 250°
2026-04-28 19:39 21.66193 39.16662 31 ft 16 kts 249°
2026-04-28 19:39 21.66186 39.16640 30 ft 0 kts 250°
2026-04-28 19:41 21.66181 39.16626 31 ft 8 kts 250°
2026-04-28 19:42 21.66150 39.16535 31 ft 12 kts 250°
2026-04-28 19:42 21.66182 39.16466 30 ft 13 kts 336°
2026-04-28 19:42 21.66304 39.16419 32 ft 40 kts 340°
2026-04-28 19:42 21.66580 39.16313 36 ft 85 kts 340°
2026-04-28 19:43 21.67655 39.15891 40 ft 156 kts 341°
2026-04-28 19:43 21.68706 39.15467 571 ft 164 kts 339°
2026-04-28 19:43 21.69769 39.14989 1230 ft 167 kts 339°
2026-04-28 19:43 21.70851 39.14526 1940 ft 168 kts 341°
2026-04-28 19:44 21.71583 39.14249 2412 ft 169 kts 341°
2026-04-28 19:44 21.72692 39.13863 3046 ft 167 kts 338°
2026-04-28 19:44 21.73763 39.13459 3713 ft 159 kts 336°
2026-04-28 19:44 21.74760 39.13073 4364 ft 144 kts 336°
2026-04-28 19:45 21.75667 39.12720 4929 ft 141 kts 335°
2026-04-28 19:45 21.76699 39.12296 5232 ft 171 kts 336°
2026-04-28 19:45 21.77922 39.11804 5704 ft 203 kts 335°
2026-04-28 19:45 21.79351 39.11233 6201 ft 235 kts 336°
2026-04-28 19:46 21.81000 39.10577 6674 ft 271 kts 336°
2026-04-28 19:46 21.82880 39.09830 7159 ft 305 kts 336°
2026-04-28 19:46 21.84975 39.08998 7660 ft 337 kts 336°
2026-04-28 19:46 21.87265 39.08093 8169 ft 362 kts 337°
2026-04-28 19:47 21.89693 39.07137 8694 ft 380 kts 337°
2026-04-28 19:47 21.92190 39.06072 9224 ft 392 kts 335°
2026-04-28 19:47 21.94709 39.04903 9757 ft 403 kts 334°
2026-04-28 19:47 21.97363 39.03752 10248 ft 415 kts 342°
2026-04-28 19:48 22.00265 39.03368 10767 ft 428 kts
2026-04-28 19:48 22.03210 39.04010 11395 ft 438 kts 19°
2026-04-28 19:48 22.05861 39.05661 12085 ft 445 kts 39°
2026-04-28 19:48 22.07900 39.08177 12762 ft 450 kts 58°
2026-04-28 19:49 22.09455 39.11117 13427 ft 454 kts 61°
2026-04-28 19:49 22.10992 39.14111 14006 ft 458 kts 61°
2026-04-28 19:49 22.12534 39.17131 14536 ft 462 kts 61°
2026-04-28 19:49 22.14090 39.20177 15033 ft 465 kts 61°
2026-04-28 19:50 22.17239 39.26329 16042 ft 471 kts 61°
2026-04-28 19:50 22.18827 39.29426 16557 ft 472 kts 61°
2026-04-28 19:50 22.20424 39.32531 17095 ft 473 kts 61°
2026-04-28 19:51 22.22023 39.35640 17624 ft 473 kts 61°
2026-04-28 19:51 22.23618 39.38740 18162 ft 473 kts 61°
2026-04-28 19:51 22.25214 39.41841 18654 ft 472 kts 61°
2026-04-28 19:51 22.26811 39.44945 19129 ft 472 kts 61°
2026-04-28 19:52 22.28382 39.48002 19603 ft 472 kts 61°
2026-04-28 19:52 22.29974 39.51107 20112 ft 472 kts 61°
2026-04-28 19:52 22.31562 39.54211 20612 ft 473 kts 61°
2026-04-28 19:52 22.33151 39.57320 21123 ft 473 kts 61°
2026-04-28 19:53 22.34741 39.60433 21660 ft 473 kts 61°
2026-04-28 19:53 22.36327 39.63547 22188 ft 474 kts 61°
2026-04-28 19:53 22.37921 39.66672 22734 ft 474 kts 61°
2026-04-28 19:53 22.39513 39.69795 23294 ft 474 kts 61°
2026-04-28 19:54 22.41104 39.72916 23793 ft 474 kts 61°
2026-04-28 19:54 22.42697 39.76041 24246 ft 474 kts 61°
2026-04-28 19:54 22.44288 39.79162 24728 ft 474 kts 60°
2026-04-28 19:54 22.46020 39.82187 25088 ft 475 kts 52°
2026-04-28 19:55 22.48121 39.84928 25434 ft 472 kts 43°
2026-04-28 19:55 22.50521 39.87337 25789 ft 470 kts 37°
2026-04-28 19:55 22.52988 39.89673 26161 ft 472 kts 37°
2026-04-28 19:55 22.55456 39.92022 26517 ft 474 kts 37°
2026-04-28 19:56 22.57927 39.94385 26886 ft 475 kts 37°
2026-04-28 19:56 22.60404 39.96758 27251 ft 476 kts 37°
2026-04-28 19:56 22.62886 39.99138 27621 ft 477 kts 37°
2026-04-28 19:56 22.65369 40.01520 27992 ft 477 kts 37°
2026-04-28 19:57 22.67856 40.03901 28381 ft 477 kts 37°
2026-04-28 19:57 22.70346 40.06280 28757 ft 477 kts 37°
2026-04-28 19:57 22.72832 40.08659 29165 ft 477 kts 36°
2026-04-28 19:57 22.75320 40.11042 29563 ft 477 kts 36°
2026-04-28 19:58 22.77798 40.13422 29966 ft 476 kts 36°
2026-04-28 19:58 22.80243 40.15770 30320 ft 475 kts 36°
2026-04-28 19:58 22.82713 40.18138 30655 ft 474 kts 36°
2026-04-28 19:58 22.85181 40.20505 30993 ft 473 kts 36°
2026-04-28 19:59 22.87645 40.22874 31329 ft 473 kts 36°
2026-04-28 19:59 22.90098 40.25237 31707 ft 472 kts 36°
2026-04-28 19:59 22.92550 40.27597 32051 ft 470 kts 36°
2026-04-28 19:59 22.94994 40.29947 32399 ft 469 kts 36°
2026-04-28 20:00 22.97432 40.32294 32761 ft 467 kts 36°
2026-04-28 20:00 22.99859 40.34635 33130 ft 466 kts 36°
2026-04-28 20:00 23.02276 40.36963 33495 ft 463 kts 36°
2026-04-28 20:00 23.04680 40.39278 33869 ft 461 kts 36°
2026-04-28 20:01 23.07070 40.41583 34217 ft 458 kts 36°
2026-04-28 20:01 23.09447 40.43876 34571 ft 456 kts 36°
2026-04-28 20:01 23.11808 40.46156 34894 ft 453 kts 36°
2026-04-28 20:02 23.16572 40.50754 35026 ft 463 kts 36°
2026-04-28 20:02 23.21461 40.55475 35026 ft 476 kts 37°
2026-04-28 20:03 23.26476 40.60325 35022 ft 489 kts 37°
2026-04-28 20:03 23.31493 40.65492 35019 ft 504 kts 41°
2026-04-28 20:04 23.36355 40.71125 35018 ft 516 kts 43°
2026-04-28 20:04 23.41257 40.76931 35015 ft 525 kts 43°
2026-04-28 20:05 23.46278 40.82701 35024 ft 531 kts 41°
2026-04-28 20:05 23.51444 40.88530 35010 ft 536 kts 41°
2026-04-28 20:06 23.56636 40.94408 35007 ft 539 kts 42°
2026-04-28 20:06 23.61825 41.00337 35002 ft 541 kts 42°
2026-04-28 20:07 23.67033 41.06296 34993 ft 544 kts 42°
2026-04-28 20:07 23.72255 41.12287 34999 ft 545 kts 42°
2026-04-28 20:08 23.77490 41.18288 34988 ft 546 kts 42°
2026-04-28 20:08 23.82735 41.24294 35002 ft 547 kts 42°
2026-04-28 20:09 23.87997 41.30329 35002 ft 549 kts 42°
2026-04-28 20:09 23.93260 41.36380 34985 ft 550 kts 42°
2026-04-28 20:10 23.98535 41.42451 34981 ft 551 kts 42°
2026-04-28 20:10 24.03804 41.48533 34981 ft 551 kts 42°
2026-04-28 20:11 24.09084 41.54633 34983 ft 552 kts 42°
2026-04-28 20:11 24.14368 41.60737 34982 ft 551 kts 42°
2026-04-28 20:12 24.19567 41.66763 34978 ft 544 kts 42°
2026-04-28 20:12 24.24746 41.72771 34978 ft 546 kts 42°
2026-04-28 20:13 24.29981 41.78828 34966 ft 548 kts 42°
2026-04-28 20:13 24.35392 41.84677 34977 ft 545 kts 36°
2026-04-28 20:14 24.41069 41.90203 34973 ft 546 kts 36°
2026-04-28 20:14 24.46760 41.95739 34972 ft 547 kts 37°
2026-04-28 20:15 24.52457 42.01292 34966 ft 548 kts 36°
2026-04-28 20:15 24.58160 42.06857 34967 ft 549 kts 37°
2026-04-28 20:16 24.63873 42.12446 34966 ft 550 kts 37°
2026-04-28 20:16 24.69559 42.18010 34972 ft 550 kts 36°
2026-04-28 20:17 24.75291 42.23618 34964 ft 551 kts 37°
2026-04-28 20:17 24.81024 42.29244 34956 ft 553 kts 37°
2026-04-28 20:18 24.86759 42.34893 34970 ft 554 kts 37°
2026-04-28 20:18 24.92511 42.40554 34962 ft 555 kts 36°
2026-04-28 20:19 24.98273 42.46216 34953 ft 555 kts 37°
2026-04-28 20:19 25.04035 42.51905 34962 ft 557 kts 37°
2026-04-28 20:20 25.09813 42.57627 34948 ft 558 kts 37°
2026-04-28 20:20 25.15593 42.63351 34932 ft 558 kts 37°
2026-04-28 20:21 25.21285 42.68992 34951 ft 540 kts 36°
2026-04-28 20:21 25.26788 42.74470 34939 ft 525 kts 36°
2026-04-28 20:22 25.32158 42.79799 34941 ft 513 kts 36°
2026-04-28 20:22 25.37419 42.85018 34967 ft 504 kts 36°
2026-04-28 20:23 25.42569 42.90136 34943 ft 497 kts 36°
2026-04-28 20:23 25.47663 42.95223 34934 ft 490 kts 36°
2026-04-28 20:24 25.52693 43.00249 34939 ft 484 kts 36°
2026-04-28 20:24 25.57667 43.05215 34947 ft 478 kts 35°
2026-04-28 20:25 25.62584 43.10128 34935 ft 473 kts 35°
2026-04-28 20:25 25.67449 43.14990 34939 ft 469 kts 35°
2026-04-28 20:26 25.72273 43.19823 34937 ft 465 kts 35°
2026-04-28 20:26 25.77026 43.24600 34938 ft 462 kts 35°
2026-04-28 20:27 25.81771 43.29367 34944 ft 458 kts 35°
2026-04-28 20:27 25.86510 43.34126 34971 ft 465 kts 35°
2026-04-28 20:28 25.91402 43.39035 34944 ft 481 kts 35°
2026-04-28 20:28 25.96444 43.44108 34933 ft 495 kts 36°
2026-04-28 20:29 26.01611 43.49322 34946 ft 508 kts 36°
2026-04-28 20:29 26.06917 43.54698 34951 ft 522 kts 36°
2026-04-28 20:30 26.12340 43.60200 34959 ft 533 kts 36°
2026-04-28 20:30 26.16943 43.64857 34964 ft 541 kts 36°
2026-04-28 20:31 26.23413 43.71584 34966 ft 556 kts 43°
2026-04-28 20:31 26.25796 43.75018 34977 ft 565 kts 54°
2026-04-28 20:31 26.27694 43.78880 34975 ft 571 kts 65°
2026-04-28 20:32 26.29593 43.86004 34970 ft 575 kts 83°
2026-04-28 20:32 26.29970 43.94875 34970 ft 575 kts 92°
2026-04-28 20:33 26.30037 44.03748 34943 ft 577 kts 92°
2026-04-28 20:33 26.30094 44.12700 34944 ft 578 kts 92°
2026-04-28 20:34 26.30155 44.21670 34946 ft 579 kts 92°
2026-04-28 20:34 26.30212 44.30658 34940 ft 580 kts 92°
2026-04-28 20:35 26.30253 44.39646 34938 ft 581 kts 92°
2026-04-28 20:35 26.30298 44.48645 34938 ft 581 kts 92°
2026-04-28 20:36 26.30332 44.57660 34928 ft 583 kts 92°
2026-04-28 20:36 26.30355 44.66692 34944 ft 583 kts 92°
2026-04-28 20:37 26.30386 44.75745 34935 ft 584 kts 92°
2026-04-28 20:37 26.30407 44.84803 34931 ft 585 kts 92°
2026-04-28 20:38 26.30431 44.93740 34935 ft 570 kts 92°
2026-04-28 20:38 26.30452 45.02432 34930 ft 553 kts 93°
2026-04-28 20:39 26.30455 45.10899 34930 ft 540 kts 93°
2026-04-28 20:39 26.30442 45.19202 34933 ft 530 kts 93°
2026-04-28 20:40 26.30416 45.27413 34934 ft 534 kts 93°
2026-04-28 20:40 26.30396 45.35779 34932 ft 545 kts 93°
2026-04-28 20:41 26.30383 45.44310 34931 ft 555 kts 93°
2026-04-28 20:41 26.30371 45.52918 34943 ft 562 kts 93°
2026-04-28 20:42 26.30345 45.61666 34930 ft 567 kts 93°
2026-04-28 20:42 26.30310 45.70536 34932 ft 570 kts 93°
2026-04-28 20:43 26.30271 45.79336 34934 ft 572 kts 93°
2026-04-28 20:43 26.30224 45.88218 34929 ft 574 kts 93°
2026-04-28 20:44 26.30172 45.97130 34935 ft 575 kts 93°
2026-04-28 20:44 26.30114 46.06050 34908 ft 576 kts 93°
2026-04-28 20:45 26.30055 46.14984 34925 ft 577 kts 93°
2026-04-28 20:45 26.29994 46.23936 34925 ft 578 kts 93°
2026-04-28 20:46 26.29920 46.32901 34921 ft 579 kts 93°
2026-04-28 20:46 26.29838 46.41883 34919 ft 580 kts 94°
2026-04-28 20:47 26.29746 46.50875 34919 ft 581 kts 94°
2026-04-28 20:47 26.29654 46.59901 34914 ft 581 kts 94°
2026-04-28 20:47 26.29614 46.64359 34904 ft 569 kts 93°
2026-04-28 20:48 26.29574 46.68731 34918 ft 559 kts 93°
2026-04-28 20:48 26.29481 46.77223 34906 ft 544 kts 94°
2026-04-28 20:49 26.29376 46.85571 34911 ft 533 kts 94°
2026-04-28 20:49 26.29269 46.93772 34910 ft 524 kts 94°
2026-04-28 20:50 26.29162 47.01827 34776 ft 519 kts 94°
2026-04-28 20:50 26.29105 47.05811 34547 ft 522 kts 94°
2026-04-28 20:50 26.29046 47.09853 34329 ft 524 kts 94°
2026-04-28 20:50 26.28986 47.13919 34102 ft 526 kts 94°
2026-04-28 20:51 26.28927 47.18005 33890 ft 529 kts 94°
2026-04-28 20:51 26.28867 47.22107 33637 ft 531 kts 94°
2026-04-28 20:51 26.28805 47.26228 33387 ft 533 kts 94°
2026-04-28 20:51 26.28760 47.29018 33218 ft 534 kts 94°
2026-04-28 20:52 26.28665 47.34504 32893 ft 536 kts 95°
2026-04-28 20:52 26.28587 47.38694 32644 ft 547 kts 95°
2026-04-28 20:52 26.28501 47.42986 32402 ft 558 kts 95°
2026-04-28 20:52 26.28412 47.47343 32159 ft 566 kts 95°
2026-04-28 20:53 26.28231 47.56169 32008 ft 570 kts 95°
2026-04-28 20:53 26.28062 47.64998 32024 ft 570 kts 95°
2026-04-28 20:54 26.28864 47.73743 32025 ft 576 kts 78°
2026-04-28 20:54 26.30653 47.82463 32031 ft 576 kts 78°
2026-04-28 20:55 26.32449 47.91181 32057 ft 576 kts 78°
2026-04-28 20:55 26.34219 47.99882 32098 ft 575 kts 78°
2026-04-28 20:56 26.35965 48.08543 32096 ft 576 kts 78°
2026-04-28 20:56 26.37727 48.17271 32101 ft 577 kts 78°
2026-04-28 20:57 26.39494 48.25998 32106 ft 577 kts 78°
2026-04-28 20:57 26.41252 48.34741 32121 ft 577 kts 78°
2026-04-28 20:58 26.43000 48.43481 32125 ft 577 kts 78°
2026-04-28 20:58 26.44724 48.52176 32130 ft 578 kts 78°
2026-04-28 20:59 26.46463 48.60937 32133 ft 578 kts 78°
2026-04-28 20:59 26.47159 48.69791 32149 ft 571 kts 99°
2026-04-28 21:00 26.46173 48.78560 32139 ft 569 kts 101°
2026-04-28 21:00 26.45150 48.87328 32162 ft 569 kts 101°
2026-04-28 21:01 26.44135 48.96081 32164 ft 565 kts 101°
2026-04-28 21:01 26.43633 49.00410 31690 ft 563 kts 101°
2026-04-28 21:01 26.43125 49.04737 31112 ft 562 kts 102°
2026-04-28 21:02 26.42614 49.09068 30532 ft 562 kts 102°
2026-04-28 21:02 26.42103 49.13390 29971 ft 561 kts 102°
2026-04-28 21:02 26.41623 49.16736 29525 ft 548 kts 108°
2026-04-28 21:02 26.40960 49.20783 28879 ft 526 kts 103°
2026-04-28 21:03 26.40523 49.24756 28223 ft 508 kts 100°
2026-04-28 21:03 26.40209 49.28624 27579 ft 493 kts 99°
2026-04-28 21:03 26.39923 49.32374 26952 ft 479 kts 99°
2026-04-28 21:03 26.39605 49.36014 26345 ft 466 kts 100°
2026-04-28 21:04 26.39233 49.39569 25750 ft 456 kts 102°
2026-04-28 21:04 26.38817 49.43044 25146 ft 449 kts 102°
2026-04-28 21:04 26.38209 49.46405 24573 ft 434 kts 115°
2026-04-28 21:04 26.36920 49.49358 24021 ft 416 kts 129°
2026-04-28 21:05 26.35487 49.52155 23472 ft 415 kts 123°
2026-04-28 21:05 26.34195 49.55010 22822 ft 410 kts 122°
2026-04-28 21:05 26.32853 49.57774 22183 ft 398 kts 131°
2026-04-28 21:05 26.31025 49.59967 21552 ft 377 kts 150°
2026-04-28 21:06 26.28803 49.61341 20944 ft 357 kts 169°
2026-04-28 21:06 26.26430 49.61802 20343 ft 339 kts 187°
2026-04-28 21:06 26.24133 49.61624 19760 ft 333 kts 192°
2026-04-28 21:06 26.21836 49.61342 19163 ft 330 kts 192°
2026-04-28 21:07 26.19558 49.61043 18590 ft 330 kts 192°
2026-04-28 21:07 26.17282 49.60735 18016 ft 329 kts 192°
2026-04-28 21:07 26.15011 49.60419 17367 ft 328 kts 192°
2026-04-28 21:07 26.12749 49.60095 16733 ft 327 kts 192°
2026-04-28 21:08 26.10500 49.59762 16120 ft 326 kts 192°
2026-04-28 21:08 26.08256 49.59423 15493 ft 324 kts 192°
2026-04-28 21:08 26.06027 49.59077 14909 ft 323 kts 192°
2026-04-28 21:08 26.03800 49.58722 14319 ft 320 kts 192°
2026-04-28 21:09 26.01599 49.58374 13744 ft 320 kts 189°
2026-04-28 21:09 25.99350 49.58600 13108 ft 337 kts 166°
2026-04-28 21:09 25.97271 49.59939 12446 ft 358 kts 141°
2026-04-28 21:09 25.95738 49.62210 11806 ft 390 kts 119°
2026-04-28 21:10 25.94950 49.65175 11183 ft 408 kts 99°
2026-04-28 21:10 25.95068 49.68305 10602 ft 406 kts 79°
2026-04-28 21:10 25.96075 49.71207 10009 ft 403 kts 60°
2026-04-28 21:10 25.97838 49.73594 9407 ft 398 kts 44°
2026-04-28 21:11 25.99834 49.75689 8791 ft 392 kts 42°
2026-04-28 21:11 26.02032 49.77428 8174 ft 385 kts 24°
2026-04-28 21:11 26.04538 49.78371 7579 ft 378 kts 13°
2026-04-28 21:11 26.07068 49.79148 6986 ft 374 kts 13°
2026-04-28 21:12 26.09558 49.79934 6404 ft 369 kts 13°
2026-04-28 21:12 26.12014 49.80724 5810 ft 365 kts 13°
2026-04-28 21:12 26.14440 49.81496 5211 ft 361 kts 13°
2026-04-28 21:12 26.16849 49.82235 4623 ft 357 kts 13°
2026-04-28 21:13 26.19266 49.82607 4132 ft 345 kts 354°
2026-04-28 21:13 26.21504 49.81965 3989 ft 327 kts 331°
2026-04-28 21:13 26.23262 49.80364 3996 ft 330 kts 306°
2026-04-28 21:13 26.24266 49.78073 4001 ft 333 kts 282°
2026-04-28 21:14 26.24528 49.75523 4003 ft 338 kts 273°
2026-04-28 21:14 26.24670 49.72890 4003 ft 343 kts 272°
2026-04-28 21:14 26.24813 49.70218 4004 ft 348 kts 272°
2026-04-28 21:14 26.24955 49.67510 4010 ft 352 kts 272°
2026-04-28 21:15 26.25096 49.64775 4009 ft 355 kts 272°
2026-04-28 21:15 26.25238 49.62018 4009 ft 356 kts 272°
2026-04-28 21:15 26.25398 49.59353 4009 ft 333 kts 273°
2026-04-28 21:15 26.25553 49.56870 4010 ft 311 kts 273°
2026-04-28 21:16 26.25698 49.54540 4006 ft 292 kts 273°
2026-04-28 21:16 26.25835 49.52353 4013 ft 274 kts 273°
2026-04-28 21:16 26.25973 49.50305 4015 ft 257 kts 273°
2026-04-28 21:16 26.26102 49.48321 4016 ft 259 kts 272°
2026-04-28 21:17 26.26216 49.46314 4016 ft 260 kts 270°
2026-04-28 21:17 26.25837 49.44374 4015 ft 259 kts 242°
2026-04-28 21:17 26.24644 49.42925 4016 ft 261 kts 213°
2026-04-28 21:17 26.22914 49.42324 4017 ft 267 kts 183°
2026-04-28 21:18 26.21105 49.42765 4018 ft 271 kts 154°
2026-04-28 21:18 26.19708 49.44161 4015 ft 276 kts 123°
2026-04-28 21:18 26.19158 49.46200 4011 ft 281 kts 90°
2026-04-28 21:18 26.19463 49.48353 4016 ft 283 kts 77°
2026-04-28 21:19 26.19903 49.50484 4016 ft 283 kts 77°
2026-04-28 21:19 26.20350 49.52620 4021 ft 283 kts 77°
2026-04-28 21:19 26.20644 49.54037 4016 ft 283 kts 77°
2026-04-28 21:19 26.21080 49.56176 4015 ft 283 kts 77°
2026-04-28 21:20 26.21506 49.58311 4014 ft 282 kts 78°
2026-04-28 21:20 26.21924 49.60433 4008 ft 274 kts 78°
2026-04-28 21:20 26.22303 49.62450 4000 ft 258 kts 78°
2026-04-28 21:20 26.22657 49.64352 4003 ft 243 kts 78°
2026-04-28 21:21 26.22995 49.66145 4006 ft 232 kts 78°
2026-04-28 21:21 26.23335 49.67894 4008 ft 231 kts 78°
2026-04-28 21:21 26.23679 49.69640 4007 ft 231 kts 78°
2026-04-28 21:21 26.24038 49.71387 4005 ft 231 kts 77°
2026-04-28 21:22 26.24402 49.73106 4000 ft 231 kts 77°
2026-04-28 21:22 26.24786 49.74845 4005 ft 231 kts 75°
2026-04-28 21:22 26.25204 49.76576 4004 ft 231 kts 75°
2026-04-28 21:22 26.25637 49.78304 4004 ft 231 kts 74°
2026-04-28 21:23 26.26077 49.80029 3945 ft 234 kts 72°
2026-04-28 21:23 26.26842 49.81677 3445 ft 243 kts 50°
2026-04-28 21:23 26.28096 49.82895 3231 ft 237 kts 28°
2026-04-28 21:23 26.29609 49.83531 3034 ft 230 kts
2026-04-28 21:24 26.31186 49.83557 2788 ft 225 kts 347°
2026-04-28 21:24 26.32672 49.83129 2543 ft 218 kts 342°
2026-04-28 21:24 26.34085 49.82695 2260 ft 207 kts 343°
2026-04-28 21:24 26.35445 49.82277 2000 ft 194 kts 343°
2026-04-28 21:25 26.36690 49.81894 1765 ft 182 kts 343°
2026-04-28 21:25 26.37875 49.81528 1553 ft 171 kts 343°
2026-04-28 21:25 26.38997 49.81180 1345 ft 164 kts 344°
2026-04-28 21:25 26.40071 49.80849 1129 ft 158 kts 343°
2026-04-28 21:26 26.41112 49.80527 950 ft 152 kts 344°
2026-04-28 21:26 26.42122 49.80214 760 ft 150 kts 342°
2026-04-28 21:26 26.43126 49.79903 572 ft 149 kts 343°
2026-04-28 21:26 26.44130 49.79594 384 ft 150 kts 343°
2026-04-28 21:27 26.45119 49.79296 169 ft 145 kts 342°
2026-04-28 21:27 26.46059 49.78993 88 ft 133 kts 344°
2026-04-28 21:27 26.46797 49.78776 87 ft 85 kts 345°
2026-04-28 21:27 26.47207 49.78645 90 ft 46 kts 342°
2026-04-28 21:28 26.47486 49.78562 90 ft 38 kts 351°
2026-04-28 21:28 26.47741 49.78579 89 ft 32 kts 14°
2026-04-28 21:28 26.47904 49.78627 89 ft 19 kts 11°
2026-04-28 21:28 26.47975 49.78699 85 ft 15 kts 91°
2026-04-28 21:29 26.47895 49.78760 86 ft 16 kts 162°
2026-04-28 21:29 26.47781 49.78795 87 ft 18 kts 166°
2026-04-28 21:29 26.47655 49.78834 88 ft 20 kts 164°
2026-04-28 21:29 26.47512 49.78876 87 ft 22 kts 165°
2026-04-28 21:30 26.47357 49.78926 87 ft 24 kts 165°
2026-04-28 21:30 26.47190 49.78979 86 ft 26 kts 163°
2026-04-28 21:30 26.47026 49.79030 90 ft 19 kts 163°
2026-04-28 21:30 26.46992 49.79150 85 ft 20 kts 72°
2026-04-28 21:31 26.47030 49.79280 87 ft 15 kts 60°
2026-04-28 21:31 26.47078 49.79363 87 ft 9 kts 63°
2026-04-28 21:31 26.47087 49.79384 85 ft 0 kts 64°